Location: Kikino
(54.4440°N, 112.0940°W)
Time: 04:20:35
(UTC+00:00)

A-11 Canister half - Pass Details

Date: 20 May 2024
Orbit: 1524 x 1684 km, 47.3° (Epoch: 20 May)

Event Time Altitude Azimuth Distance (km) Brightness Sun altitude
Rises 07:57:38 0° 257° (WSW) 4,731 11.4 -15.1°
Reaches altitude 10° 08:00:43 10° 254° (WSW) 3,767 10.8 -15.1°
Maximum altitude 08:10:00 58° 179° (S) 1,837 9.1 -14.8°
Drops below altitude 10° 08:19:37 10° 104° (ESE) 3,891 11.1 -14.5°
Sets 08:22:51 0° 101° (E) 4,896 11.7 -14.4°
